Regional Weather Roundup
Issued by NWS

Home | Current Version | Previous Version | Text Only | Print | Product List | Glossary On
Versions: 1 2 3 4 5 6 7 8 9 10 11 12 13 14 15 16 17 18 19 20 21 22 23 24 25 26 27
000
ASUS44 KBMX 252210
RWRAL

ALABAMA REGIONAL WEATHER ROUNDUP
NATIONAL WEATHER SERVICE BIRMINGHAM AL
500 PM CDT SAT MAR 25 2017

NOTE: "FAIR" INDICATES FEW OR NO CLOUDS BELOW 12,000 FEET
WITH NO SIGNIFICANT WEATHER AND/OR OBSTRUCTIONS TO VISIBILITY.

THE REMARK "TC" DENOTES TEMPERATURE IN DEGREES CELSIUS.

ALZ001>011-014-016>018-020-252300-
NORTH ALABAMA

CITY           SKY/WX    TMP DP  RH WIND       PRES   REMARKS
MUSCLE SHOALS  CLOUDY    65  56  72 S7        30.01F
HUNTSVILLE     LGT RAIN  64  59  83 S8        30.03F
DECATUR        LGT RAIN  62  58  86 S13       30.03S
HALEYVILLE     LGT RAIN  61  58  90 S6        30.04F
GADSDEN        CLOUDY    65  56  72 W15       30.05R
$$

ALZ012-013-022-023-030>036-040>044-252300-
WEST CENTRAL ALABAMA

CITY           SKY/WX    TMP DP  RH WIND       PRES   REMARKS
TUSCALOOSA     LGT RAIN  62  60  93 SE6       30.05S
$$

ALZ015-024>027-033>036-040>044-252300-
CENTRAL ALABAMA

CITY           SKY/WX    TMP DP  RH WIND       PRES   REMARKS
BIRMINGHAM     RAIN      61  59  93 CALM      30.08F FOG
MONTGOMERY     LGT RAIN  77  57  50 S10       30.01S
SHELBY CO ARPT RAIN      60  60 100 VRB6      30.06F FOG
MAXWELL AFB    LGT RAIN  77  59  53 S12G21    30.00F
GREENVILLE     PTSUNNY   76  55  48 S10G24    30.01F
$$

ALZ019-021-028-029-037-038-045>048-252300-
EAST CENTRAL ALABAMA

CITY           SKY/WX    TMP DP  RH WIND       PRES   REMARKS
ANNISTON       MOSUNNY   77  54  44 S7        30.01F
ALEXANDER CITY MOSUNNY   75  54  47 SE5       30.02F
AUBURN         SUNNY     77  54  44 S14       30.05F THUNDER
$$

ALZ051>064-252300-
SOUTHWEST ALABAMA

CITY           SKY/WX    TMP DP  RH WIND       PRES   REMARKS
MOBILE         TSTM      63  60  90 W13G26    30.06R FOG
BROOKLEY FIELD CLOUDY    73  69  87 S17G28    30.03S
EVERGREEN      LGT RAIN  74  62  66 S15G23    30.03S
$$

ALZ049-050-065>069-252300-
SOUTHEAST ALABAMA

CITY           SKY/WX    TMP DP  RH WIND       PRES   REMARKS
DOTHAN         PTSUNNY   79  57  46 S12       30.09F
OZARK          MOSUNNY   79  57  47 SE15G21   30.04F
TROY           MOSUNNY   78  57  48 SE15      30.03F
EUFAULA        FAIR      81  51  35 SE12      30.04F
$$




USA.gov is the U.S. government's official web portal to all federal, state and local government web resources and services.